Regional Weather Roundup
Issued by NWS

Home | Current Version | Previous Version | Graphics & Text | Print | Product List | Glossary On
Versions: 1 2 3 4 5 6 7 8 9 10 11 12 13 14 15 16 17 18 19 20 21 22 23 24 25 26 27 28 29 30 31 32 33 34 35 36 37 38 39 40 41 42 43 44 45 46 47 48 49 50
000
ASUS43 KFSD 191002
RWRSD

WEATHER ROUNDUP FOR SOUTH DAKOTA
NATIONAL WEATHER SERVICE SIOUX FALLS SD
400 AM CST MON FEB 19 2018

NOTE: "FAIR" INDICATES FEW OR NO CLOUDS BELOW 12,000 FEET WITH NO
SIGNIFICANT WEATHER AND/OR OBSTRUCTIONS TO VISIBILITY.


SDZ001>005-009-010-012>017-191100-
NORTHWEST AND NORTH CENTRAL SOUTH DAKOTA

CITY           SKY/WX    TMP DP  RH WIND       PRES   REMARKS
BUFFALO          N/A      2  -3  80 N8        29.94R WCI -12
FAITH            N/A      4   2  91 N16       30.01F WCI -15
MOBRIDGE       CLOUDY     9   2  73 N15       30.06R WCI  -8
$$

SDZ012>016-024>037-041>051-057-063-072>074-191100-
SOUTHWEST AND SOUTH CENTRAL SOUTH DAKOTA

CITY           SKY/WX    TMP DP  RH WIND       PRES   REMARKS
RAPID CTY ARPT LGT SNOW   2  -2  83 N16       29.97R FOG     WCI -18
PIERRE         LGT SNOW   8   5  87 N10       30.05R FOG     WCI  -6
CUSTER         LGT SNOW   3  -3  76 VRB3      29.71R
ELLSWORTH AFB  CLOUDY     3   0  86 N16       29.96  BLWGSNOWWCI -16
PHILIP         LGT SNOW   7   4  87 N8        30.05S FOG     WCI  -6
PINE RIDGE     CLOUDY     6   0  76 N13       29.91F WCI -10
SPEARFISH      LGT SNOW   0  -4  85 N3        29.93S
WINNER         FLURRIES  11   6  81 N16G23    29.96R WCI  -6
$$

SDZ004>011-016>023-039-040-191100-
NORTHEAST SOUTH DAKOTA

CITY           SKY/WX    TMP DP  RH WIND       PRES   REMARKS
ABERDEEN       LGT SNOW   9   3  77 N20G26    30.04R WCI -10
WATERTOWN      CLOUDY    10   6  84 N18G25    29.92R WCI  -8
BROOKINGS      FLURRIES  12   7  80 N24       29.86R WCI  -8
SISSETON         N/A     10   4  76 N17G23    30.02  WCI  -8
$$

SDZ017-020-022-023-036>040-048>070-191100-
SOUTHEAST SOUTH DAKOTA

CITY           SKY/WX    TMP DP  RH WIND       PRES   REMARKS
SIOUX FALLS    CLOUDY    16  11  80 N20G29    29.84S WCI  -1
HURON          CLOUDY    11   6  81 N23G30    29.96F WCI  -9
CHAMBERLAIN    CLOUDY    12   7  80 NW18G29   29.97R WCI  -6
MITCHELL       CLOUDY    14   9  80 N23       29.94R WCI  -5
YANKTON        MIX PCPN  18  15  88 NW23      29.84S FOG     WCI   0
$$

ABBREVIATIONS USED IN REMARKS
   TC - TEMPERATURE IN CELSIUS
  WCI - WIND CHILL INDEX
   HX - HEAT INDEX
  VSB - VISIBILITY




USA.gov is the U.S. government's official web portal to all federal, state and local government web resources and services.